DW1590 Weather Reports


time (UTC)temp
C
wind
direction
speed
KPH
gust
KPH
rain 1hr
cm
rain 24hr
cm
rain mn
cm
humidity
%
barometer
mb
20260510094555 11 326 0.0 0.0 0.00 0.00 0.00 100 1010.8
20260510093039 11 326 1.6 0.0 0.00 0.00 0.00 100 1010.8
20260510091535 11 308 1.6 0.0 0.00 0.00 0.00 100 1010.7
20260510090041 11 360 0.0 0.0 0.00 0.00 0.00 100 1010.5
20260510084527 11 360 0.0 0.0 0.00 0.00 0.00 100 1010.6
20260510083026 11 360 0.0 0.0 0.00 0.00 0.00 100 1010.5
20260510081517 11 360 0.0 0.0 0.00 0.00 0.00 100 1010.4
20260510080024 11 15 0.0 0.0 0.00 0.00 0.00 100 1010.3
20260510074511 11 53 0.0 0.0 0.00 0.00 0.00 100 1009.9
20260510073004 11 53 0.0 0.0 0.00 0.00 0.00 100 1009.8
20260510071600 12 53 0.0 0.0 0.00 0.00 0.00 100 1009.7
20260510070057 12 53 0.0 0.0 0.00 0.00 0.00 100 1009.8
20260510064553 12 54 0.0 0.0 0.00 0.00 0.00 100 1009.6
20260510063050 12 54 0.0 0.0 0.00 0.00 0.00 100 1009.5
20260510061544 12 54 0.0 0.0 0.00 0.00 0.00 100 1009.5
20260510060039 12 54 0.0 0.0 0.00 0.00 0.00 100 1009.4
20260510054535 13 54 0.0 0.0 0.00 0.00 0.00 100 1009.8
20260510053029 13 54 0.0 0.0 0.00 0.00 0.00 100 1009.6
20260510051525 13 54 0.0 0.0 0.00 0.00 0.00 100 1009.6
20260510050021 13 54 0.0 0.0 0.00 0.00 0.00 100 1009.6
20260510044527 14 54 0.0 0.0 0.00 0.00 0.00 100 1009.7
20260510043012 14 54 0.0 0.0 0.00 0.00 0.00 100 1009.7
20260510041512 15 54 0.0 0.0 0.00 0.00 0.00 100 1009.7
20260510040004 15 54 0.0 0.0 0.00 0.00 0.00 100 1009.6
20260510034601 15 54 0.0 0.0 0.00 0.00 0.00 100 1009.6
20260510033132 15 54 0.0 0.0 0.00 0.00 0.00 100 1009.6
20260510031603 15 54 0.0 0.0 0.00 0.00 0.00 100 1009.5
20260510030048 15 54 0.0 0.0 0.00 0.00 0.00 100 1009.5
20260510024541 15 84 1.6 0.0 0.00 0.00 0.00 100 1009.4
20260510023037 16 63 1.6 0.0 0.00 0.00 0.00 100 1009.4
20260510021534 16 36 1.6 0.0 0.00 0.00 0.00 100 1009.2
20260510020029 16 73 1.6 0.0 0.00 0.00 0.00 100 1009.1
20260510014523 17 66 1.6 0.0 0.00 0.00 0.00 100 1009.2
20260510013021 17 52 1.6 0.0 0.00 0.00 0.00 100 1008.8
20260510011532 17 60 1.6 0.0 0.00 0.00 0.00 4 1008.5
20260510010011 17 68 3.2 0.0 0.00 0.00 0.00 9 1008.3
20260510004509 17 78 1.6 0.0 0.00 0.00 0.00 8 1008.2
20260510003004 18 78 0.0 0.0 0.00 0.00 0.00 20 1008.1
20260510001502 18 81 1.6 0.0 0.00 0.00 0.00 31 1007.9
20260510000108 18 104 0.0 0.0 0.00 0.00 0.00 34 1007.8
20260509234601 20 84 0.0 0.0 0.00 0.00 0.00 46 1007.7
20260509233055 20 84 1.6 0.0 0.00 0.00 0.00 51 1007.6
20260509231554 20 71 1.6 0.0 0.00 0.00 0.00 54 1007.4
20260509230054 20 74 3.2 0.0 0.00 0.00 0.00 58 1007.5
20260509224553 20 42 4.8 0.0 0.00 0.00 0.00 59 1007.3
20260509223101 21 48 4.8 0.0 0.00 0.00 0.00 60 1007.5
20260509221552 21 82 3.2 0.0 0.00 0.00 0.00 61 1007.5
20260509220051 22 138 4.8 0.0 0.00 0.00 0.00 61 1007.4
20260509214550 22 89 4.8 0.0 0.00 0.00 0.00 61 1007.3
20260509213049 21 238 3.2 0.0 0.00 0.00 0.00 59 1007.3
20260509211548 22 90 1.6 0.0 0.00 0.00 0.00 61 1007.3
20260509210053 22 127 3.2 0.0 0.00 0.00 0.00 61 1007.4
20260509204552 21 198 4.8 0.0 0.00 0.00 0.00 61 1007.2
20260509203045 21 219 3.2 0.0 0.00 0.00 0.00 61 1007.3
20260509201546 21 196 6.4 0.0 0.00 0.00 0.00 61 1007.4
20260509200057 21 163 4.8 0.0 0.00 0.00 0.00 60 1007.7
20260509194539 21 163 3.2 0.0 0.00 0.00 0.00 61 1008.1
20260509193035 21 150 3.2 0.0 0.00 0.00 0.00 61 1008.3
20260509191534 20 196 3.2 0.0 0.00 0.00 0.00 61 1008.4
20260509190035 20 77 1.6 0.0 0.00 0.00 0.00 60 1008.5
20260509184541 20 63 1.6 0.0 0.00 0.00 0.00 56 1008.6
20260509183031 20 228 1.6 0.0 0.00 0.00 0.00 62 1008.8
20260509181525 20 257 1.6 0.0 0.00 0.00 0.00 62 1008.9
20260509180023 20 236 3.2 0.0 0.00 0.00 0.00 61 1009.4
20260509174522 20 233 6.4 0.0 0.00 0.00 0.00 61 1009.4
20260509173021 20 184 3.2 0.0 0.00 0.00 0.00 61 1009.4
20260509171520 19 166 6.4 0.0 0.00 0.00 0.00 61 1009.6
20260509170017 19 214 3.2 0.0 0.00 0.00 0.00 61 1009.8
20260509164517 19 192 3.2 0.0 0.00 0.00 0.00 61 1009.8
20260509163016 19 245 4.8 0.0 0.00 0.00 0.00 61 1009.8
20260509161513 19 144 4.8 0.0 0.00 0.00 0.00 61 1009.8
20260509160011 18 190 4.8 0.0 0.00 0.00 0.00 60 1010.0
20260509154511 18 194 6.4 0.0 0.00 0.00 0.00 60 1010.1
20260509153005 17 159 4.8 0.0 0.00 0.00 0.00 57 1010.2
20260509151502 17 205 3.2 0.0 0.00 0.00 0.00 59 1010.3
20260509150100 17 262 3.2 0.0 0.00 0.00 0.00 58 1010.5
20260509144609 16 193 1.6 0.0 0.00 0.00 0.00 57 1010.8
20260509143118 16 207 3.2 0.0 0.00 0.00 0.00 57 1011.1
20260509141553 16 212 3.2 0.0 0.00 0.00 0.00 58 1010.9
20260509140100 16 238 3.2 0.0 0.00 0.00 0.00 58 1010.7
20260509134607 16 180 4.8 0.0 0.00 0.00 0.00 60 1010.8
20260509133049 16 171 6.4 0.0 0.00 0.00 0.00 61 1010.8
20260509131547 16 177 9.7 0.0 0.00 0.00 0.00 61 1010.9
20260509130055 16 205 3.2 0.0 0.00 0.00 0.00 61 1010.9
20260509124544 15 248 4.8 0.0 0.00 0.00 0.00 62 1010.6
20260509123045 15 217 1.6 0.0 0.00 0.00 0.00 62 1010.6
20260509121543 15 181 1.6 0.0 0.00 0.00 0.00 63 1010.7
20260509120034 15 226 4.8 0.0 0.00 0.00 0.00 63 1010.6
20260509114536 14 182 4.8 0.0 0.00 0.00 0.00 63 1010.6
20260509113035 14 178 3.2 0.0 0.00 0.00 0.00 63 1010.5
20260509111528 14 163 1.6 0.0 0.00 0.00 0.00 63 1010.4
20260509110027 14 179 1.6 0.0 0.00 0.00 0.00 63 1010.4
20260509104536 14 159 0.0 0.0 0.00 0.00 0.00 63 1010.2
20260509103022 14 176 0.0 0.0 0.00 0.00 0.00 63 1010.0
20260509101531 14 174 0.0 0.0 0.00 0.00 0.00 62 1010.1
20260509100024 14 174 0.0 0.0 0.00 0.00 0.00 62 1010.0